Weather History for Langdon, ND

Change the Weather History Date:

Monday, March 25, 2013

  Actual Average (KDVL) Record (KDVL)
Temperature  
Mean Temperature 10 °F -  
Max Temperature 19 °F 38 °F 69 °F (2007)
Min Temperature 0 °F 22 °F -18 °F (1964)
Degree Days  
Heating Degree Days 56    
Moisture  
Dew Point 11 °F    
Average Humidity 88    
Maximum Humidity 100    
Minimum Humidity 74    
Precipitation  
Precipitation 0.00 in - - ()
Sea Level Pressure  
Sea Level Pressure 30.29 in    
Wind  
Wind Speed 9 mph (NNW)    
Max Wind Speed 13 mph    
Max Gust Speed -    
Visibility 10 miles    
Events Snow    
Averages and records for this station are not official NWS values.
T = Trace of Precipitation, MM = Missing Value Source: NWS Daily Summary

Daily Weather History Graph

Daily Weather History Graph

Search for Another Location

Airport:

Trip Planner

Search our weather history database for the weather conditions in past years. The results will help you decide how hot, cold, wet, or windy it might be!

Date:

Astronomy

Mar. 25, 2013 Rise Set
Actual Time 7:25 AM CDT 7:54 PM CDT
Civil Twilight 6:53 AM CDT 8:26 PM CDT
Nautical Twilight 6:16 AM CDT 9:03 PM CDT
Astronomical Twilight 5:37 AM CDT 9:42 PM CDT
Moon 6:23 PM CDT (3/25) 6:16 AM CDT (3/25)
Length of Visible Light 13h 32m
Length of Day
12h 29m
Waxing Gibbous, 96% of the Moon is Illuminated
Mar 25
Waxing Gibbous
Mar 27
Full
Apr 2
Last Quarter
Apr 10
New
Apr 18
First Quarter

Hourly Weather History & Observations

Time (CDT) Temp. Windchill Dew Point Humidity Pressure Visibility Wind Dir Wind Speed Gust Speed Precip Events Conditions
12:15 AM 5.0 °F -10.0 °F 1.4 °F 85% 30.25 in 10.0 mi NNW 10.4 mph - N/A Snow Light Snow
12:35 AM 5.0 °F -9.1 °F 1.4 °F 85% 30.25 in 10.0 mi NNW 9.2 mph - N/A Snow Light Snow
12:55 AM 6.8 °F -7.8 °F 5.0 °F 92% 30.25 in 10.0 mi NNW 10.4 mph - N/A Snow Light Snow
1:15 AM 8.6 °F -2.6 °F 6.8 °F 92% 30.25 in 10.0 mi NNW 6.9 mph - N/A   Overcast
1:35 AM 10.4 °F 0.8 °F 8.6 °F 92% 30.26 in 10.0 mi North 5.8 mph - N/A   Overcast
1:55 AM 10.4 °F -1.5 °F 8.6 °F 92% 30.26 in 10.0 mi North 8.1 mph - N/A   Overcast
2:15 AM 10.4 °F -1.5 °F 8.6 °F 92% 30.26 in 9.0 mi NNW 8.1 mph - N/A Snow Light Snow
2:35 AM 12.2 °F 2.9 °F 10.4 °F 92% 30.26 in 9.0 mi NNW 5.8 mph - N/A Snow Light Snow
2:55 AM 12.2 °F 2.9 °F 10.4 °F 92% 30.26 in 10.0 mi NNW 5.8 mph - N/A Snow Light Snow
3:15 AM 14.0 °F 3.9 °F 12.2 °F 93% 30.26 in 9.0 mi North 6.9 mph - N/A Snow Light Snow
3:35 AM 14.0 °F 2.0 °F 14.0 °F 100% 30.26 in 10.0 mi North 9.2 mph - N/A Snow Light Snow
3:55 AM 14.0 °F 2.9 °F 14.0 °F 100% 30.26 in 10.0 mi North 8.1 mph - N/A   Overcast
4:15 AM 14.0 °F 2.9 °F 12.2 °F 93% 30.26 in 10.0 mi North 8.1 mph - N/A   Overcast
4:35 AM 14.0 °F 2.0 °F 12.2 °F 93% 30.26 in 10.0 mi NNW 9.2 mph - N/A Snow Light Snow
4:55 AM 14.0 °F 2.9 °F 12.2 °F 93% 30.26 in 10.0 mi NNW 8.1 mph - N/A   Overcast
5:15 AM 14.0 °F 2.9 °F 12.2 °F 93% 30.26 in 10.0 mi North 8.1 mph - N/A   Overcast
5:35 AM 14.0 °F 3.9 °F 10.4 °F 86% 30.27 in 10.0 mi North 6.9 mph - N/A   Overcast
5:55 AM 14.0 °F 2.9 °F 10.4 °F 86% 30.27 in 10.0 mi NNW 8.1 mph - N/A   Overcast
6:15 AM 14.0 °F 1.2 °F 10.4 °F 86% 30.27 in 10.0 mi NNW 10.4 mph - N/A   Overcast
6:35 AM 14.0 °F 1.2 °F 10.4 °F 86% 30.28 in 10.0 mi NNW 10.4 mph - N/A Snow Light Snow
6:55 AM 14.0 °F 2.9 °F 10.4 °F 86% 30.28 in 10.0 mi NW 8.1 mph - N/A   Overcast
7:15 AM 14.0 °F 1.2 °F 10.4 °F 86% 30.28 in 10.0 mi NW 10.4 mph - N/A   Overcast
7:35 AM 14.0 °F 1.2 °F 10.4 °F 86% 30.29 in 10.0 mi NW 10.4 mph - N/A Snow Light Snow
7:55 AM 14.0 °F 2.0 °F 10.4 °F 86% 30.29 in 10.0 mi NW 9.2 mph - N/A   Overcast
8:15 AM 14.0 °F 1.2 °F 10.4 °F 86% 30.29 in 10.0 mi NW 10.4 mph - N/A   Overcast
8:35 AM 14.0 °F 1.2 °F 10.4 °F 86% 30.30 in 10.0 mi NNW 10.4 mph - N/A   Overcast
8:55 AM 14.0 °F 2.0 °F 12.2 °F 93% 30.30 in 10.0 mi NNW 9.2 mph - N/A   Overcast
9:15 AM 14.0 °F 0.5 °F 12.2 °F 93% 30.30 in 10.0 mi NNW 11.5 mph - N/A Snow Light Snow
9:35 AM 14.0 °F 0.5 °F 12.2 °F 93% 30.31 in 8.0 mi NNW 11.5 mph - N/A Snow Light Snow
9:55 AM 15.8 °F 3.4 °F 14.0 °F 93% 30.31 in 6.0 mi NNW 10.4 mph - N/A Snow Light Snow
10:15 AM 15.8 °F 3.4 °F 14.0 °F 93% 30.32 in 10.0 mi NNW 10.4 mph - N/A Snow Light Snow
10:35 AM 15.8 °F 3.4 °F 14.0 °F 93% 30.32 in 10.0 mi NNW 10.4 mph - N/A Snow Light Snow
10:55 AM 15.8 °F 3.4 °F 14.0 °F 93% 30.32 in 10.0 mi NNW 10.4 mph - N/A   Overcast
11:15 AM 17.6 °F 5.0 °F 15.8 °F 93% 30.32 in 8.0 mi NNW 11.5 mph - N/A Snow Light Snow
11:35 AM 17.6 °F 5.7 °F 15.8 °F 93% 30.32 in 9.0 mi NNW 10.4 mph - N/A Snow Light Snow
11:55 AM 17.6 °F 5.0 °F 14.0 °F 86% 30.32 in 9.0 mi NNW 11.5 mph - N/A Snow Light Snow
12:15 PM 17.6 °F 5.7 °F 15.8 °F 93% 30.32 in 9.0 mi NNW 10.4 mph - N/A Snow Light Snow
12:35 PM 17.6 °F 5.7 °F 15.8 °F 93% 30.32 in 10.0 mi NNW 10.4 mph - N/A Snow Light Snow
12:55 PM 17.6 °F 5.0 °F 14.0 °F 86% 30.32 in 10.0 mi NNW 11.5 mph - N/A   Overcast
1:15 PM 19.4 °F 7.2 °F 14.0 °F 80% 30.32 in 10.0 mi NNW 11.5 mph - N/A   Overcast
1:35 PM 19.4 °F 6.6 °F 14.0 °F 80% 30.31 in 10.0 mi NNW 12.7 mph - N/A   Overcast
1:55 PM 19.4 °F 7.9 °F 14.0 °F 80% 30.31 in 9.0 mi NNW 10.4 mph - N/A Snow Light Snow
2:15 PM 19.4 °F 7.9 °F 15.8 °F 86% 30.31 in 9.0 mi NNW 10.4 mph - N/A   Overcast
2:35 PM 19.4 °F 8.6 °F 12.2 °F 74% 30.31 in 10.0 mi North 9.2 mph - N/A   Overcast
2:55 PM 19.4 °F 7.9 °F 14.0 °F 80% 30.30 in 10.0 mi North 10.4 mph - N/A Snow Light Snow
3:15 PM 19.4 °F 7.9 °F 14.0 °F 80% 30.30 in 10.0 mi North 10.4 mph - N/A   Overcast
3:35 PM 19.4 °F 8.6 °F 14.0 °F 80% 30.30 in 10.0 mi NNW 9.2 mph - N/A Snow Light Snow
3:55 PM 19.4 °F 7.2 °F 14.0 °F 80% 30.30 in 10.0 mi North 11.5 mph - N/A Snow Light Snow
4:15 PM 19.4 °F 7.2 °F 14.0 °F 80% 30.29 in 10.0 mi North 11.5 mph - N/A Snow Light Snow
4:35 PM 19.4 °F 7.9 °F 14.0 °F 80% 30.29 in 10.0 mi NNW 10.4 mph - N/A   Overcast
4:55 PM 19.4 °F 7.2 °F 14.0 °F 80% 30.29 in 10.0 mi North 11.5 mph - N/A   Overcast
5:15 PM 19.4 °F 8.6 °F 12.2 °F 74% 30.29 in 10.0 mi North 9.2 mph - N/A Snow Light Snow
5:35 PM 19.4 °F 8.6 °F 14.0 °F 80% 30.30 in 9.0 mi North 9.2 mph - N/A Snow Light Snow
5:55 PM 19.4 °F 8.6 °F 14.0 °F 80% 30.30 in 10.0 mi North 9.2 mph - N/A   Overcast
6:15 PM 19.4 °F 8.6 °F 14.0 °F 80% 30.30 in 10.0 mi North 9.2 mph - N/A   Overcast
6:35 PM 19.4 °F 10.4 °F 14.0 °F 80% 30.30 in 10.0 mi North 6.9 mph - N/A   Overcast
6:55 PM 17.6 °F 9.3 °F 14.0 °F 86% 30.30 in 10.0 mi North 5.8 mph - N/A   Overcast
7:15 PM 19.4 °F 11.5 °F 14.0 °F 80% 30.30 in 9.0 mi North 5.8 mph - N/A Snow Light Snow
7:35 PM 17.6 °F 8.2 °F 14.0 °F 86% 30.30 in 7.0 mi NW 6.9 mph - N/A Snow Light Snow
7:55 PM 15.8 °F 3.4 °F 14.0 °F 93% 30.30 in 10.0 mi NW 10.4 mph - N/A Snow Light Snow
8:15 PM 15.8 °F 3.4 °F 14.0 °F 93% 30.30 in 10.0 mi NW 10.4 mph - N/A Snow Light Snow
8:35 PM 15.8 °F 4.2 °F 12.2 °F 86% 30.30 in 10.0 mi NW 9.2 mph - N/A Snow Light Snow
8:55 PM 14.0 °F 0.5 °F 10.4 °F 86% 30.30 in 10.0 mi NW 11.5 mph - N/A   Overcast
9:15 PM 12.2 °F -1.0 °F 8.6 °F 85% 30.30 in 10.0 mi NW 10.4 mph - N/A   Mostly Cloudy
9:55 PM 8.6 °F -3.7 °F 6.8 °F 92% 30.30 in 10.0 mi NW 8.1 mph - N/A   Clear
10:15 PM 5.0 °F -6.9 °F 1.4 °F 85% 30.30 in 10.0 mi WNW 6.9 mph - N/A   Clear
10:35 PM 1.4 °F -9.9 °F -0.4 °F 92% 30.29 in 10.0 mi WNW 5.8 mph - N/A   Clear
10:55 PM 1.4 °F -12.5 °F -0.4 °F 92% 30.29 in 10.0 mi WNW 8.1 mph - N/A   Clear
11:15 PM 1.4 °F -11.3 °F -0.4 °F 92% 30.29 in 10.0 mi WNW 6.9 mph - N/A   Clear
11:35 PM -0.4 °F -8.3 °F -0.4 °F 100% 30.29 in 10.0 mi WNW 3.5 mph - N/A   Clear
11:55 PM -0.4 °F -8.3 °F -2.2 °F 92% 30.29 in 10.0 mi WNW 3.5 mph - N/A   Clear